Back to catalog

DELTA 1 DEB

AliveSSO
NORAD 19306·DEBRIS·🇺🇸 United States

Launched Jul 29, 1976 from Vandenberg Space Force Base

Loading…

Next Passes (next 24 hours)

TLE

FreshSource: Space-Track

Epoch: Sep 12, 2026, 05:34 UTC

1 19306U 76077FJ  26255.23218639  .00000045  00000-0  87756-3 0  9995
2 19306 102.2276 357.1034 0144270 257.9271 129.1131 12.15465383685820

Track DELTA 1 DEB in real time with AllMySat

Download on the App Store